User: anonymous   Login
Location: Caltech
(34.1382°N, 118.1253°W)
Time: 20:23:47
(UTC-07:00)
Language:

Cosmos 2219 - Orbit

View from above orbital plane
View from above orbital plane
View from above satellite
View from above satellite

Ground track
Ground track

The orbit data is extracted from the following two-line orbital elements,

1 22219U 92076A   15107.85349679 -.00000053  00000-0 -29489-5 0  9992
2 22219 071.0623 050.6308 0017139 164.8903 195.2735 14.13552547156383
Epoch (UTC): 17 April 2015 20:29:02
Eccentricity: 0.0017139
inclination: 71.0623°
perigee height: 835 km
apogee height: 859 km
right ascension of ascending node: 50.6308°
argument of perigee: 164.8903°
revolutions per day: 14.13552547
mean anomaly at epoch: 195.2735°
orbit number at epoch: 15638

The dashed part of the orbit path shows where the satellite is in the earth's shadow,  

DLR